Regional Weather Roundup
Issued by NWS

Home | Current Version | Previous Version | Text Only | Print | Product List | Glossary Off
Versions: 1 2 3 4 5 6 7 8 9 10 11 12 13 14 15 16 17 18 19 20 21 22 23 24 25 26 27 28 29 30 31 32 33 34 35 36 37 38 39 40 41 42 43 44 45 46 47 48 49 50

895
ASUS45 KBOI 220310
RWRID

IDAHO REGIONAL WEATHER ROUNDUP
NATIONAL WEATHER SERVICE BOISE ID
800 PM MST TUE NOV 21 2017

NOTE: "FAIR" INDICATES FEW OR NO CLOUDS BELOW 12000 FEET
WITH NO SIGNIFICANT WEATHER AND/OR OBSTRUCTIONS TO VISIBILITY

IDZ012-014-220400-
SOUTHWEST IDAHO


CITY           SKY/WX    TMP DP  RH WIND       PRES   REMARKS
BOISE          LGT RAIN  54  49  83 SE13      30.25S
CALDWELL       LGT RAIN  51  49  92 SE3       30.25S
MOUNTAIN HOME  CLOUDY    52  52 100 NE5       30.27R
$$

IDZ016-017-220400-
SOUTHCENTRAL IDAHO


CITY           SKY/WX    TMP DP  RH WIND       PRES   REMARKS
BURLEY         CLOUDY    49  46  90 CALM      30.30S
JEROME         MOCLDY    51  47  86 E9        30.31R
TWIN FALLS     MOCLDY    50  49  96 E7        30.31R
$$

IDZ019>023-220400-
SOUTHEAST IDAHO


CITY           SKY/WX    TMP DP  RH WIND       PRES   REMARKS
IDAHO FALLS    CLOUDY    38  38 100 N3        30.35F
POCATELLO      CLOUDY    43  42  97 CALM      30.35S
REXBURG        CLOUDY    38  38 100 CALM      30.34S FOG
$$

IDZ006-010-011-018-031-032-220400-
CENTRAL IDAHO MOUNTAINS


CITY           SKY/WX    TMP DP  RH WIND       PRES   REMARKS
MCCALL         LGT RAIN  40  39  97 CALM      30.26R FOG
HAILEY         DRIZZLE   41  41 100 W8        30.36R
STANLEY          N/A     39  37  92 SE8       30.35S WCI  33
SALMON         LGT RAIN  36  35  96 CALM      30.30S
CHALLIS        CLOUDY    39  35  86 CALM      30.29S
$$

IDZ002-004-006-007-026-220400-
NORTHERN IDAHO


CITY           SKY/WX    TMP DP  RH WIND       PRES   REMARKS
LEWISTON       CLOUDY    46  44  93 E9        30.11S
LOWELL           N/A     41  41 100 N5        30.25S
COEUR D`ALENE  LGT RAIN  40  39  97 NE8       30.06F WCI  34
MULLAN PASS    LGT RAIN  36  34  92 S8        30.10S VSB 1/2 WCI  30
$$




USA.gov is the U.S. government's official web portal to all federal, state and local government web resources and services.